Hourly Data Report for July 04, 2022

MANIWAKI AIRPORT
QUEBEC
Current Station Operator: ECCC - MSC

46°16'29.000" N
75°59'31.000" W
199.70 m
7034482
71721
WMJ

Download Data

Hourly Data (July 2022)
Hourly Data Report for July 4, 2022
TIME
LST
Temp Definition
°C
Dew Point Definition
°C
Rel Hum Definition
%
Precip. Amount Definition
mm

Wind Dir Definition
10's deg

Wind Spd Definition
km/h
Visibility Definition
km
Stn Press Definition
kPa
Hmdx Definition


Wind Chill Definition


Weather Definition


00:00 14.0 11.0 82 0.0 27 7   99.50     LegendNANA
01:00 13.6 11.0 84 0.0 29 5   99.52     LegendNANA
02:00 10.7 10.2 97 0.0 11 1   99.54     LegendNANA
03:00 9.2 8.8 97 0.0 1 2   99.54     LegendNANA
04:00 8.9 8.5 98 0.0   0   99.60     LegendNANA
05:00 9.3 8.9 97 0.0   0   99.66     LegendNANA
06:00 13.0 11.9 93 0.0   0   99.65     LegendNANA
07:00 14.3 12.2 87 0.0 21 3   99.66     LegendNANA
08:00 17.6 11.8 69 0.0 20 2   99.66     LegendNANA
09:00 19.6 10.1 54 0.0 21 7   99.64     LegendNANA
10:00 20.9 9.9 49 0.0 23 8   99.61     LegendNANA
11:00 22.2 8.3 41 0.0 27 10   99.58     LegendNANA
12:00 23.2 8.3 38 0.0 26 9   99.52     LegendNANA
13:00 24.3 8.8 37 0.0 23 10   99.49 25   LegendNANA
14:00 24.8 8.7 36 0.0 26 8   99.45 26   LegendNANA
15:00 25.1 8.5 35 0.0 26 17   99.41 26   LegendNANA
16:00 24.8 7.6 34 0.0 26 18   99.38 25   LegendNANA
17:00 24.5 9.7 39 0.0 26 10   99.35 26   LegendNANA
18:00 24.0 9.8 41 0.0 27 7   99.34 25   LegendNANA
19:00 20.3 12.7 62 0.0 21 7   99.33     LegendNANA
20:00 17.9 12.7 72 0.0 19 3   99.33     LegendNANA
21:00 15.7 12.6 82 0.0 35 1   99.37     LegendNANA
22:00 14.6 12.9 89 0.0 17 1   99.36     LegendNANA
23:00 14.1 13.1 94 0.0 0 1   99.35     LegendNANA

Notes on Data Quality.

Legend

  • E = Estimated
  • M = Missing
  • NA = Not Available*
  • [empty] = Indicates an unobserved value
Date modified: